Regional Weather Roundup
Issued by NWS

Home | Current Version | Previous Version | Graphics & Text | Print | Product List | Glossary On
Versions: 1 2 3 4 5 6 7 8 9 10 11 12 13 14 15 16 17 18 19 20 21 22 23 24 25 26 27 28 29 30 31 32 33 34 35 36 37 38 39 40 41 42 43 44 45 46 47
000
ASUS45 KCYS 021110
RWRWY

WYOMING REGIONAL WEATHER ROUNDUP
NATIONAL WEATHER SERVICE CHEYENNE WY
400 AM MST MON MAR 02 2015

NOTE:  "FAIR" INDICATES FEW OR NO CLOUDS BELOW 12,000 FEET
WITH NO SIGNIFICANT WEATHER AND/OR OBSTRUCTIONS TO VISIBILITY.

WYZ001-021200-
YELLOWSTONE NATIONAL PARK

CITY           SKY/WX    TMP DP  RH WIND       PRES   REMARKS
LK YELLOWSTONE   N/A     -9 -14  78 NW3       29.90F
W YELLOWSTONE  NOT AVBL

$$
WYZ002>013-054>058-071-098>099-021200-
NORTHERN WYOMING

CITY           SKY/WX    TMP DP  RH WIND       PRES   REMARKS
JACKSON        CLOUDY     7   3  85 N8        29.93F WCI  -6
CODY           FAIR      10   5  79 CALM      29.87F
GREYBULL       FAIR      13   8  81 CALM      29.95F
WORLAND        FAIR      13   9  84 S5        29.93F WCI   5
SHERIDAN       FAIR       4  -2  76 S5        29.88F WCI  -5
BUFFALO        FAIR      12  -3  51 CALM      29.85F
GILLETTE       FAIR      16   9  74 S23G31    29.90F WCI  -2
HULETT         FAIR      28  16  59 S6        29.93F WCI  22
NEWCASTLE      FAIR      25  10  54 SE16G22   30.00F WCI  12

$$
WYZ014>020-022>026-101>103-021200-
CENTRAL WYOMING

CITY           SKY/WX    TMP DP  RH WIND       PRES   REMARKS
BIG PINEY      MOCLDY    12   8  84 CALM      29.94F
PINEDALE       FAIR       3   0  85 W6        29.93F WCI  -8
DUBOIS         FAIR      12   9  85 W15       29.86F WCI  -4
LANDER         FAIR      11   5  77 NW3       29.91F
RIVERTON       FAIR       8   3  80 NW8       29.93F WCI  -4
CASPER         MOCLDY    19  14  81 NE3       29.92F
DOUGLAS        FAIR      24  17  74 SE16G24   29.95F WCI  11

$$
WYZ021-027>030-104>119-021200-
SOUTHERN WYOMING

CITY           SKY/WX    TMP DP  RH WIND       PRES   REMARKS
EVANSTON       MOCLDY    24  20  84 E8        29.85F WCI  15
FORT BRIDGER   CLOUDY    23  22  95 CALM      29.91F
ROCK SPRINGS   CLOUDY    21  16  81 CALM      29.91S
DIXON          LGT SNOW  30  29  94 CALM      29.93F
RAWLINS        CLOUDY    21  16  81 CALM      29.91F
SARATOGA       LGT SNOW  30  28  93 S6        29.90F WCI  24
LARAMIE        CLOUDY    21  16  81 S14       29.90F WCI   8
CHEYENNE       LGT SNOW  20  16  84 S16       30.00F FOG     WCI   6
TORRINGTON     MOCLDY    27  17  66 SE13      30.04F WCI  16
PINE BLUFFS    CLOUDY    25  21  86 S10G20    30.07S WCI  15

$$



USA.gov is the U.S. government's official web portal to all federal, state and local government web resources and services.